RYR9EF LPPR-EDJA

Flight info

Callsign RYR9EF
Flight time 2h 27m
Altitude 24000
Route BELDU UL155 ADORO/N0429F340 DCT FITSE DCT DGO T429 TOPTU/N0434F380 DCT TOU DCT GAI DCT MEN DCT NINUN DCT LATAM DCT ETREK DCT LTP DCT SOPLO DCT OMASI DCT KINNI DCT SOSAL DCT KORED DCT BERSU N871 DITON T103 NUNRI Z6 ALG
Aircraft B738/M-SDE2E3FGHIRWXY/LB1

Departure

Time 2026-04-24 20:49
Airport Francisco de Sá Carneiro Airport (LPPR)

Arrival

Time 2026-04-24 23:16
Airport Memmingen Allgau Airport (EDJA)
Time Latitude Longitude Altitude Speed Heading
2026-04-24 20:23 41.23904 -8.67390 234 ft 0 kts 124°
2026-04-24 20:41 41.23908 -8.67397 240 ft 4 kts 124°
2026-04-24 20:41 41.23923 -8.67426 235 ft 3 kts 124°
2026-04-24 20:41 41.23938 -8.67448 238 ft 4 kts 163°
2026-04-24 20:41 41.23960 -8.67444 238 ft 4 kts 212°
2026-04-24 20:42 41.23971 -8.67435 239 ft 1 kts 214°
2026-04-24 20:42 41.23972 -8.67435 239 ft 0 kts 214°
2026-04-24 20:45 41.23969 -8.67437 239 ft 2 kts 213°
2026-04-24 20:45 41.23945 -8.67474 237 ft 9 kts 249°
2026-04-24 20:46 41.23930 -8.67558 234 ft 9 kts 258°
2026-04-24 20:46 41.23917 -8.67642 238 ft 9 kts 258°
2026-04-24 20:46 41.23912 -8.67671 236 ft 1 kts 258°
2026-04-24 20:46 41.23910 -8.67687 234 ft 2 kts 258°
2026-04-24 20:47 41.23905 -8.67718 236 ft 6 kts 258°
2026-04-24 20:47 41.23893 -8.67796 233 ft 12 kts 258°
2026-04-24 20:47 41.23883 -8.67857 233 ft 1 kts 258°
2026-04-24 20:47 41.23885 -8.67873 233 ft 1 kts 302°
2026-04-24 20:48 41.23911 -8.67885 233 ft 8 kts 350°
2026-04-24 20:48 41.24163 -8.67952 235 ft 73 kts 349°
2026-04-24 20:48 41.24892 -8.68145 236 ft 138 kts 348°
2026-04-24 20:48 41.25924 -8.68416 663 ft 157 kts 348°
2026-04-24 20:49 41.26999 -8.68713 1518 ft 158 kts 349°
2026-04-24 20:49 41.28084 -8.69005 2082 ft 160 kts 349°
2026-04-24 20:49 41.29194 -8.69295 2479 ft 161 kts 350°
2026-04-24 20:49 41.30295 -8.69577 2884 ft 162 kts 349°
2026-04-24 20:50 41.31418 -8.69788 3238 ft 166 kts
2026-04-24 20:50 41.32450 -8.68927 3567 ft 197 kts 54°
2026-04-24 20:50 41.32875 -8.67070 3810 ft 226 kts 81°
2026-04-24 20:50 41.33031 -8.64906 4224 ft 241 kts 83°
2026-04-24 20:51 41.33176 -8.62616 4655 ft 259 kts 83°
2026-04-24 20:51 41.33332 -8.60170 5368 ft 268 kts 83°
2026-04-24 20:51 41.33493 -8.57693 6297 ft 269 kts 84°
2026-04-24 20:51 41.33661 -8.55199 7149 ft 272 kts 84°
2026-04-24 20:52 41.33835 -8.52666 7929 ft 277 kts 84°
2026-04-24 20:52 41.34016 -8.50095 8756 ft 281 kts 84°
2026-04-24 20:52 41.34201 -8.47493 9580 ft 285 kts 85°
2026-04-24 20:52 41.34391 -8.44850 10360 ft 289 kts 85°
2026-04-24 20:53 41.34589 -8.42099 10673 ft 311 kts 85°
2026-04-24 20:53 41.34804 -8.39124 10910 ft 333 kts 84°
2026-04-24 20:53 41.35030 -8.35998 11467 ft 343 kts 84°
2026-04-24 20:53 41.35261 -8.32813 12179 ft 348 kts 84°
2026-04-24 20:54 41.35494 -8.29595 12916 ft 352 kts 84°
2026-04-24 20:54 41.35726 -8.26372 13636 ft 356 kts 84°
2026-04-24 20:54 41.35965 -8.23056 14305 ft 361 kts 84°
2026-04-24 20:54 41.36204 -8.19715 14983 ft 364 kts 84°
2026-04-24 20:55 41.36445 -8.16346 15683 ft 367 kts 84°
2026-04-24 20:55 41.36686 -8.12950 16345 ft 370 kts 84°
2026-04-24 20:55 41.36929 -8.09518 16984 ft 374 kts 84°
2026-04-24 20:55 41.37173 -8.06053 17638 ft 378 kts 84°
2026-04-24 20:56 41.37418 -8.02553 18291 ft 381 kts 85°
2026-04-24 20:56 41.37665 -7.99024 18876 ft 384 kts 85°
2026-04-24 20:56 41.37913 -7.95462 19435 ft 388 kts 85°
2026-04-24 20:56 41.38160 -7.91893 20121 ft 387 kts 85°
2026-04-24 20:57 41.38405 -7.88338 20895 ft 383 kts 85°
2026-04-24 20:57 41.38647 -7.84813 21623 ft 382 kts 86°
2026-04-24 20:57 41.38887 -7.81292 22312 ft 382 kts 86°
2026-04-24 20:57 41.39126 -7.77777 22980 ft 381 kts 86°
2026-04-24 20:58 41.39364 -7.74260 23668 ft 381 kts 86°
2026-04-24 20:58 41.39601 -7.70748 24100 ft 382 kts 86°
2026-04-24 20:58 41.39834 -7.67268 24124 ft 381 kts 86°
2026-04-24 20:58 41.40068 -7.63763 24139 ft 381 kts 87°
2026-04-24 20:59 41.40302 -7.60240 24142 ft 381 kts 87°
2026-04-24 20:59 41.40534 -7.56725 24146 ft 381 kts 87°
2026-04-24 20:59 41.40765 -7.53209 24143 ft 381 kts 87°
2026-04-24 20:59 41.41130 -7.49700 24130 ft 383 kts 78°
2026-04-24 21:00 41.41854 -7.46264 24187 ft 390 kts 75°
2026-04-24 21:00 41.42663 -7.42746 24283 ft 404 kts 74°
2026-04-24 21:00 41.43515 -7.39115 24381 ft 417 kts 74°
2026-04-24 21:00 41.44391 -7.35369 24478 ft 429 kts 74°
2026-04-24 21:01 41.45281 -7.31517 24554 ft 441 kts 74°
2026-04-24 21:01 41.46185 -7.27553 24636 ft 452 kts 75°
2026-04-24 21:01 41.47103 -7.23492 24704 ft 462 kts 75°
2026-04-24 21:01 41.48032 -7.19348 24784 ft 471 kts 75°
2026-04-24 21:02 41.48958 -7.15197 24891 ft 478 kts 75°
2026-04-24 21:02 41.49909 -7.10920 25112 ft 481 kts 75°
2026-04-24 21:02 41.50858 -7.06642 25507 ft 480 kts 75°
2026-04-24 21:02 41.51802 -7.02376 26006 ft 477 kts 75°
2026-04-24 21:03 41.52741 -6.98132 26499 ft 475 kts 76°
2026-04-24 21:03 41.53674 -6.93900 26904 ft 475 kts 76°
2026-04-24 21:03 41.54606 -6.89663 27283 ft 475 kts 76°
2026-04-24 21:03 41.55535 -6.85434 27692 ft 475 kts 76°
2026-04-24 21:04 41.56450 -6.81261 28142 ft 473 kts 76°
2026-04-24 21:04 41.57372 -6.77046 28593 ft 472 kts 76°
2026-04-24 21:04 41.58291 -6.72837 29003 ft 472 kts 77°
2026-04-24 21:04 41.59210 -6.68622 29401 ft 472 kts 77°
2026-04-24 21:05 41.60125 -6.64414 29817 ft 471 kts 77°
2026-04-24 21:05 41.61036 -6.60216 30234 ft 470 kts 77°
2026-04-24 21:05 41.61945 -6.56023 30580 ft 469 kts 77°
2026-04-24 21:05 41.62851 -6.51834 30978 ft 467 kts 77°
2026-04-24 21:06 41.63716 -6.47825 31368 ft 465 kts 77°
2026-04-24 21:06 41.64611 -6.43677 31751 ft 464 kts 77°
2026-04-24 21:06 41.65499 -6.39543 32112 ft 462 kts 77°
2026-04-24 21:06 41.66385 -6.35418 32476 ft 461 kts 77°
2026-04-24 21:07 41.67255 -6.31352 32836 ft 459 kts 77°
2026-04-24 21:07 41.68132 -6.27249 33208 ft 458 kts 77°
2026-04-24 21:07 41.69003 -6.23168 33578 ft 456 kts 77°
2026-04-24 21:07 41.69870 -6.19095 33921 ft 455 kts 77°
2026-04-24 21:08 41.70512 -6.16072 34139 ft 455 kts 77°
2026-04-24 21:08 41.71265 -6.12521 34361 ft 454 kts 77°
2026-04-24 21:08 41.72127 -6.08453 34585 ft 455 kts 77°
2026-04-24 21:08 41.72988 -6.04377 34816 ft 455 kts 77°
2026-04-24 21:09 41.73849 -6.00300 35030 ft 455 kts 76°
2026-04-24 21:09 41.74709 -5.96215 35254 ft 455 kts 76°
2026-04-24 21:09 41.75567 -5.92130 35486 ft 455 kts 76°
2026-04-24 21:09 41.76425 -5.88045 35707 ft 455 kts 76°
2026-04-24 21:10 41.77279 -5.83962 35938 ft 455 kts 76°
2026-04-24 21:10 41.78134 -5.79873 36151 ft 455 kts 76°
2026-04-24 21:10 41.78986 -5.75789 36371 ft 455 kts 76°
2026-04-24 21:10 41.79835 -5.71710 36596 ft 454 kts 76°
2026-04-24 21:11 41.80682 -5.67634 36796 ft 454 kts 76°
2026-04-24 21:11 41.81529 -5.63546 37008 ft 454 kts 76°
2026-04-24 21:11 41.82371 -5.59476 37222 ft 454 kts 76°
2026-04-24 21:11 41.83215 -5.55392 37443 ft 453 kts 76°
2026-04-24 21:12 41.84043 -5.51373 37652 ft 452 kts 76°
2026-04-24 21:12 41.84608 -5.48629 37782 ft 452 kts 77°
2026-04-24 21:12 41.85715 -5.43238 38048 ft 451 kts 77°
2026-04-24 21:12 41.86548 -5.39174 38140 ft 453 kts 77°
2026-04-24 21:13 41.88215 -5.31011 38142 ft 452 kts 77°
2026-04-24 21:13 41.89865 -5.22903 38139 ft 448 kts 77°
2026-04-24 21:14 41.91498 -5.14853 38146 ft 445 kts 77°
2026-04-24 21:14 41.92840 -5.08206 38145 ft 443 kts 77°
2026-04-24 21:15 41.94444 -5.00234 38155 ft 441 kts 77°
2026-04-24 21:15 41.96037 -4.92279 38150 ft 441 kts 77°
2026-04-24 21:16 41.97627 -4.84312 38158 ft 442 kts 77°
2026-04-24 21:16 41.99215 -4.76324 38156 ft 443 kts 77°
2026-04-24 21:17 42.00804 -4.68299 38153 ft 445 kts 78°
2026-04-24 21:17 42.02382 -4.60300 38154 ft 446 kts 78°
2026-04-24 21:18 42.03969 -4.52221 38153 ft 447 kts 78°
2026-04-24 21:18 42.05555 -4.44118 38145 ft 449 kts 78°
2026-04-24 21:19 42.07137 -4.35996 38146 ft 449 kts 78°
2026-04-24 21:19 42.08716 -4.27860 38144 ft 449 kts 78°
2026-04-24 21:20 42.11069 -4.15675 38150 ft 448 kts 78°
2026-04-24 21:21 42.12630 -4.07548 38142 ft 446 kts 78°
2026-04-24 21:21 42.14178 -3.99455 38149 ft 445 kts 78°
2026-04-24 21:22 42.15707 -3.91428 38150 ft 444 kts 78°
2026-04-24 21:22 42.17231 -3.83390 38164 ft 442 kts 78°
2026-04-24 21:23 42.18747 -3.75364 38166 ft 441 kts 78°
2026-04-24 21:23 42.20253 -3.67354 38168 ft 440 kts 78°
2026-04-24 21:24 42.21753 -3.59349 38176 ft 440 kts 78°
2026-04-24 21:24 42.23244 -3.51354 38180 ft 440 kts 78°
2026-04-24 21:25 42.24733 -3.43336 38177 ft 440 kts 78°
2026-04-24 21:25 42.26218 -3.35305 38171 ft 441 kts 78°
2026-04-24 21:26 42.27702 -3.27247 38162 ft 443 kts 78°
2026-04-24 21:26 42.29186 -3.19151 38162 ft 444 kts 79°
2026-04-24 21:27 42.30668 -3.11037 38156 ft 445 kts 79°
2026-04-24 21:27 42.32137 -3.02959 38155 ft 446 kts 78°
2026-04-24 21:28 42.33613 -2.94804 38149 ft 447 kts 79°
2026-04-24 21:28 42.35086 -2.86630 38148 ft 448 kts 79°
2026-04-24 21:29 42.36558 -2.78429 38160 ft 449 kts 79°
2026-04-24 21:29 42.38026 -2.70211 38153 ft 450 kts 79°
2026-04-24 21:30 42.39491 -2.61970 38157 ft 450 kts 79°
2026-04-24 21:30 42.40950 -2.53728 38151 ft 450 kts 79°
2026-04-24 21:31 42.42394 -2.45536 38158 ft 450 kts 79°
2026-04-24 21:31 42.43841 -2.37287 38158 ft 450 kts 79°
2026-04-24 21:32 42.45280 -2.29052 38156 ft 449 kts 79°
2026-04-24 21:32 42.46709 -2.20828 38159 ft 448 kts 79°
2026-04-24 21:33 42.48130 -2.12616 38151 ft 447 kts 79°
2026-04-24 21:33 42.49533 -2.04474 38148 ft 446 kts 79°
2026-04-24 21:34 42.50936 -1.96292 38135 ft 445 kts 79°
2026-04-24 21:34 42.52330 -1.88122 38132 ft 444 kts 79°
2026-04-24 21:35 42.53715 -1.79973 38136 ft 443 kts 79°
2026-04-24 21:35 42.55091 -1.71836 38141 ft 442 kts 79°
2026-04-24 21:36 42.56457 -1.63723 38147 ft 441 kts 79°
2026-04-24 21:36 42.57816 -1.55612 38149 ft 440 kts 79°
2026-04-24 21:37 42.59168 -1.47505 38147 ft 440 kts 79°
2026-04-24 21:37 42.60511 -1.39413 38144 ft 439 kts 79°
2026-04-24 21:38 42.61850 -1.31312 38140 ft 439 kts 78°
2026-04-24 21:38 42.63182 -1.23209 38151 ft 439 kts 78°
2026-04-24 21:39 42.64509 -1.15101 38136 ft 440 kts 78°
2026-04-24 21:39 42.65831 -1.06990 38131 ft 440 kts 78°
2026-04-24 21:40 42.67138 -0.98924 38132 ft 440 kts 78°
2026-04-24 21:40 42.68450 -0.90793 38135 ft 440 kts 78°
2026-04-24 21:41 42.69759 -0.82647 38139 ft 441 kts 78°
2026-04-24 21:41 42.71061 -0.74498 38129 ft 442 kts 79°
2026-04-24 21:42 42.72360 -0.66328 38139 ft 442 kts 79°
2026-04-24 21:42 42.73655 -0.58147 38149 ft 443 kts 79°
2026-04-24 21:43 42.74945 -0.49953 38145 ft 443 kts 79°
2026-04-24 21:43 42.76230 -0.41752 38150 ft 443 kts 79°
2026-04-24 21:44 42.77512 -0.33530 38162 ft 444 kts 79°
2026-04-24 21:44 42.78789 -0.25309 38162 ft 444 kts 78°
2026-04-24 21:45 42.81017 -0.17481 38171 ft 446 kts 60°
2026-04-24 21:45 42.84736 -0.10733 38178 ft 446 kts 51°
2026-04-24 21:46 42.88700 -0.04289 38171 ft 446 kts 50°
2026-04-24 21:46 42.92675 0.02229 38162 ft 447 kts 51°
2026-04-24 21:47 42.96617 0.08788 38162 ft 446 kts 51°
2026-04-24 21:47 43.00541 0.15365 38151 ft 447 kts 51°
2026-04-24 21:48 43.04468 0.21965 38163 ft 447 kts 51°
2026-04-24 21:48 43.08393 0.28577 38160 ft 448 kts 51°
2026-04-24 21:49 43.12318 0.35200 38165 ft 448 kts 51°
2026-04-24 21:49 43.16241 0.41836 38164 ft 449 kts 51°
2026-04-24 21:50 43.20145 0.48454 38156 ft 449 kts 51°
2026-04-24 21:50 43.24069 0.55121 38146 ft 449 kts 51°
2026-04-24 21:51 43.27999 0.61814 38147 ft 450 kts 51°
2026-04-24 21:51 43.31918 0.68503 38147 ft 449 kts 51°
2026-04-24 21:52 43.35837 0.75206 38139 ft 449 kts 51°
2026-04-24 21:52 43.39739 0.81898 38136 ft 448 kts 51°
2026-04-24 21:53 43.43627 0.88580 38132 ft 446 kts 51°
2026-04-24 21:53 43.47473 0.95205 38127 ft 445 kts 51°
2026-04-24 21:54 43.51323 1.01852 38132 ft 443 kts 51°
2026-04-24 21:54 43.55159 1.08489 38126 ft 442 kts 51°
2026-04-24 21:55 43.58976 1.15111 38127 ft 441 kts 51°
2026-04-24 21:55 43.62786 1.21734 38134 ft 440 kts 51°
2026-04-24 21:56 43.66584 1.28349 38129 ft 440 kts 51°
2026-04-24 21:56 43.70333 1.35035 38133 ft 440 kts 53°
2026-04-24 21:57 43.73960 1.41871 38132 ft 441 kts 53°
2026-04-24 21:57 43.77582 1.48729 38132 ft 442 kts 53°
2026-04-24 21:58 43.81204 1.55555 38131 ft 443 kts 53°
2026-04-24 21:58 43.84864 1.62452 38136 ft 444 kts 53°
2026-04-24 21:59 43.88525 1.69365 38130 ft 445 kts 53°
2026-04-24 21:59 43.92194 1.76312 38132 ft 446 kts 53°
2026-04-24 22:00 43.95860 1.83275 38139 ft 447 kts 54°
2026-04-24 22:00 43.99425 1.90344 38134 ft 447 kts 55°
2026-04-24 22:01 44.02354 1.96272 38137 ft 447 kts 55°
2026-04-24 22:01 44.06445 2.04551 38142 ft 446 kts 55°
2026-04-24 22:02 44.09392 2.10508 38134 ft 446 kts 55°
2026-04-24 22:02 44.12887 2.17572 38147 ft 445 kts 55°
2026-04-24 22:03 44.16394 2.24676 38161 ft 444 kts 55°
2026-04-24 22:03 44.19890 2.31775 38150 ft 443 kts 55°
2026-04-24 22:04 44.23375 2.38871 38160 ft 443 kts 55°
2026-04-24 22:04 44.26843 2.45951 38151 ft 442 kts 55°
2026-04-24 22:05 44.30303 2.53030 38154 ft 441 kts 55°
2026-04-24 22:05 44.33751 2.60103 38157 ft 440 kts 55°
2026-04-24 22:06 44.37169 2.67132 38158 ft 440 kts 55°
2026-04-24 22:06 44.40609 2.74222 38163 ft 440 kts 55°
2026-04-24 22:07 44.44039 2.81309 38166 ft 440 kts 55°
2026-04-24 22:07 44.47464 2.88404 38176 ft 440 kts 55°
2026-04-24 22:08 44.50891 2.95519 38170 ft 441 kts 55°
2026-04-24 22:08 44.54252 3.02516 38188 ft 441 kts 55°
2026-04-24 22:09 44.57679 3.09668 38174 ft 442 kts 55°
2026-04-24 22:09 44.61087 3.16836 38177 ft 442 kts 57°
2026-04-24 22:10 44.64177 3.24301 38188 ft 442 kts 60°
2026-04-24 22:10 44.67132 3.31826 38178 ft 442 kts 60°
2026-04-24 22:11 44.70134 3.39379 38180 ft 442 kts 59°
2026-04-24 22:11 44.73147 3.46902 38190 ft 441 kts 59°
2026-04-24 22:12 44.76156 3.54428 38175 ft 441 kts 60°
2026-04-24 22:12 44.79151 3.61963 38175 ft 441 kts 60°
2026-04-24 22:13 44.82133 3.69507 38172 ft 441 kts 60°
2026-04-24 22:13 44.85090 3.77011 38172 ft 440 kts 60°
2026-04-24 22:14 44.88065 3.84576 38163 ft 440 kts 60°
2026-04-24 22:14 44.91032 3.92141 38169 ft 440 kts 60°
2026-04-24 22:15 44.93992 3.99706 38167 ft 441 kts 60°
2026-04-24 22:15 44.96952 4.07296 38157 ft 441 kts 60°
2026-04-24 22:16 44.99908 4.14893 38157 ft 441 kts 60°
2026-04-24 22:16 45.02840 4.22449 38151 ft 441 kts 60°
2026-04-24 22:17 45.05792 4.30072 38151 ft 442 kts 60°
2026-04-24 22:17 45.08741 4.37703 38139 ft 442 kts 60°
2026-04-24 22:18 45.11683 4.45338 38140 ft 442 kts 60°
2026-04-24 22:18 45.14620 4.52982 38138 ft 442 kts 60°
2026-04-24 22:19 45.17558 4.60647 38135 ft 442 kts 60°
2026-04-24 22:19 45.20490 4.68319 38129 ft 442 kts 61°
2026-04-24 22:20 45.23395 4.75952 38125 ft 442 kts 61°
2026-04-24 22:20 45.26313 4.83643 38118 ft 442 kts 61°
2026-04-24 22:21 45.29226 4.91340 38123 ft 442 kts 61°
2026-04-24 22:21 45.32136 4.99049 38122 ft 442 kts 61°
2026-04-24 22:22 45.35037 5.06759 38130 ft 443 kts 61°
2026-04-24 22:22 45.37938 5.14487 38131 ft 443 kts 62°
2026-04-24 22:23 45.40834 5.22226 38134 ft 443 kts 62°
2026-04-24 22:23 45.43724 5.29971 38127 ft 443 kts 62°
2026-04-24 22:24 45.46597 5.37689 38135 ft 443 kts 62°
2026-04-24 22:24 45.49891 5.45085 38121 ft 442 kts 49°
2026-04-24 22:25 45.54371 5.51072 38128 ft 442 kts 40°
2026-04-24 22:25 45.59008 5.56834 38125 ft 442 kts 41°
2026-04-24 22:26 45.63609 5.62663 38127 ft 442 kts 41°
2026-04-24 22:26 45.68187 5.68536 38127 ft 442 kts 42°
2026-04-24 22:27 45.72763 5.74420 38139 ft 442 kts 42°
2026-04-24 22:27 45.77258 5.80195 38130 ft 442 kts 42°
2026-04-24 22:28 45.81841 5.86088 38132 ft 442 kts 42°
2026-04-24 22:28 45.86418 5.91990 38145 ft 442 kts 42°
2026-04-24 22:29 45.93246 6.00821 38160 ft 442 kts 42°
2026-04-24 22:29 45.97813 6.06749 38157 ft 443 kts 42°
2026-04-24 22:30 46.02385 6.12698 38157 ft 443 kts 42°
2026-04-24 22:30 46.06953 6.18652 38151 ft 443 kts 43°
2026-04-24 22:31 46.11467 6.24680 38128 ft 443 kts 45°
2026-04-24 22:31 46.15846 6.30933 38132 ft 443 kts 45°
2026-04-24 22:32 46.20205 6.37209 38134 ft 443 kts 45°
2026-04-24 22:32 46.24587 6.43480 38132 ft 443 kts 45°
2026-04-24 22:33 46.28976 6.49752 38125 ft 443 kts 45°
2026-04-24 22:33 46.33324 6.55975 38134 ft 443 kts 45°
2026-04-24 22:34 46.37701 6.62257 38125 ft 442 kts 45°
2026-04-24 22:34 46.42062 6.68531 38129 ft 441 kts 45°
2026-04-24 22:35 46.46411 6.74803 38125 ft 440 kts 45°
2026-04-24 22:35 46.50753 6.81081 38130 ft 440 kts 45°
2026-04-24 22:36 46.55055 6.87314 38135 ft 439 kts 46°
2026-04-24 22:36 46.59057 6.93977 38150 ft 437 kts 52°
2026-04-24 22:37 46.62835 7.00907 38146 ft 437 kts 52°
2026-04-24 22:37 46.66622 7.07835 38143 ft 437 kts 52°
2026-04-24 22:38 46.70429 7.14735 38149 ft 436 kts 52°
2026-04-24 22:38 46.74230 7.21616 38147 ft 435 kts 52°
2026-04-24 22:39 46.78028 7.28508 38157 ft 441 kts 51°
2026-04-24 22:39 46.81907 7.35570 38169 ft 450 kts 51°
2026-04-24 22:40 46.85806 7.42685 38169 ft 458 kts 51°
2026-04-24 22:40 46.89810 7.50027 38164 ft 464 kts 51°
2026-04-24 22:41 46.93820 7.57409 38144 ft 461 kts 51°
2026-04-24 22:41 46.97125 7.63506 38150 ft 459 kts 51°
2026-04-24 22:42 47.01743 7.72046 37928 ft 465 kts 51°
2026-04-24 22:42 47.03758 7.75781 37530 ft 466 kts 52°
2026-04-24 22:42 47.05748 7.79474 37092 ft 456 kts 52°
2026-04-24 22:43 47.07685 7.83075 36724 ft 444 kts 52°
2026-04-24 22:43 47.09583 7.86606 36330 ft 434 kts 52°
2026-04-24 22:43 47.11432 7.90049 35967 ft 425 kts 52°
2026-04-24 22:43 47.13255 7.93454 35608 ft 422 kts 53°
2026-04-24 22:44 47.14925 7.96985 35142 ft 422 kts 59°
2026-04-24 22:44 47.16437 8.00678 34737 ft 420 kts 60°
2026-04-24 22:44 47.17923 8.04362 34336 ft 419 kts 59°
2026-04-24 22:44 47.19444 8.08003 33939 ft 417 kts 59°
2026-04-24 22:45 47.20976 8.11606 33526 ft 415 kts 59°
2026-04-24 22:45 47.22509 8.15195 33125 ft 412 kts 58°
2026-04-24 22:45 47.24026 8.18745 32762 ft 409 kts 59°
2026-04-24 22:45 47.25532 8.22281 32400 ft 406 kts 59°
2026-04-24 22:46 47.27027 8.25801 32043 ft 403 kts 59°
2026-04-24 22:46 47.28490 8.29252 31692 ft 400 kts 59°
2026-04-24 22:46 47.29920 8.32737 31417 ft 394 kts 64°
2026-04-24 22:46 47.30980 8.36420 31245 ft 376 kts 73°
2026-04-24 22:47 47.31767 8.39977 30909 ft 365 kts 74°
2026-04-24 22:47 47.32521 8.43483 30604 ft 354 kts 74°
2026-04-24 22:47 47.33257 8.46906 30255 ft 346 kts 74°
2026-04-24 22:47 47.33746 8.49168 29996 ft 340 kts 74°
2026-04-24 22:48 47.34686 8.53491 29567 ft 330 kts 73°
2026-04-24 22:48 47.35389 8.56711 29227 ft 328 kts 73°
2026-04-24 22:48 47.36094 8.59930 28905 ft 334 kts 73°
2026-04-24 22:48 47.36823 8.63265 28583 ft 349 kts 73°
2026-04-24 22:49 47.37319 8.65533 28328 ft 352 kts 73°
2026-04-24 22:49 47.38067 8.68950 27979 ft 348 kts 73°
2026-04-24 22:49 47.38808 8.72337 27635 ft 344 kts 73°
2026-04-24 22:49 47.39539 8.75680 27297 ft 341 kts 73°
2026-04-24 22:50 47.40261 8.78993 26976 ft 337 kts 73°
2026-04-24 22:50 47.40975 8.82273 26646 ft 334 kts 73°
2026-04-24 22:50 47.41680 8.85521 26314 ft 331 kts 73°
2026-04-24 22:50 47.42379 8.88738 25992 ft 328 kts 73°
2026-04-24 22:51 47.43072 8.91939 25671 ft 326 kts 73°
2026-04-24 22:51 47.43758 8.95111 25357 ft 323 kts 72°
2026-04-24 22:51 47.44439 8.98263 25037 ft 321 kts 72°
2026-04-24 22:51 47.45115 9.01392 24725 ft 318 kts 72°
2026-04-24 22:52 47.45785 9.04498 24418 ft 316 kts 72°
2026-04-24 22:52 47.46451 9.07586 24111 ft 314 kts 72°
2026-04-24 22:52 47.47101 9.10612 23810 ft 312 kts 72°
2026-04-24 22:52 47.47756 9.13661 23460 ft 310 kts 72°
2026-04-24 22:53 47.48405 9.16685 23158 ft 307 kts 72°
2026-04-24 22:53 47.49045 9.19677 22845 ft 304 kts 72°
2026-04-24 22:53 47.49678 9.22635 22551 ft 301 kts 72°
2026-04-24 22:53 47.50304 9.25569 22257 ft 298 kts 72°
2026-04-24 22:54 47.50927 9.28487 21957 ft 297 kts 72°
2026-04-24 22:54 47.51548 9.31406 21656 ft 297 kts 72°
2026-04-24 22:54 47.52174 9.34346 21366 ft 304 kts 72°
2026-04-24 22:54 47.52817 9.37374 21063 ft 313 kts 72°
2026-04-24 22:55 47.53469 9.40451 20731 ft 313 kts 72°
2026-04-24 22:55 47.54117 9.43514 20422 ft 310 kts 71°
2026-04-24 22:55 47.54758 9.46547 20107 ft 308 kts 71°
2026-04-24 22:55 47.55394 9.49560 19804 ft 305 kts 71°
2026-04-24 22:56 47.56024 9.52550 19494 ft 303 kts 71°
2026-04-24 22:56 47.56650 9.55520 19198 ft 301 kts 71°
2026-04-24 22:56 47.57269 9.58470 18893 ft 299 kts 71°
2026-04-24 22:56 47.57884 9.61402 18592 ft 298 kts 71°
2026-04-24 22:57 47.58544 9.64297 18266 ft 295 kts 64°
2026-04-24 22:57 47.59566 9.66903 17979 ft 290 kts 52°
2026-04-24 22:57 47.60838 9.69200 17668 ft 287 kts 49°
2026-04-24 22:57 47.62119 9.71413 17382 ft 285 kts 49°
2026-04-24 22:58 47.63406 9.73629 17079 ft 283 kts 49°
2026-04-24 22:58 47.64683 9.75841 16794 ft 281 kts 49°
2026-04-24 22:58 47.65948 9.78042 16498 ft 279 kts 49°
2026-04-24 22:58 47.67198 9.80230 16206 ft 277 kts 49°
2026-04-24 22:59 47.68441 9.82413 15927 ft 275 kts 49°
2026-04-24 22:59 47.69670 9.84576 15643 ft 273 kts 49°
2026-04-24 22:59 47.72096 9.88853 15093 ft 272 kts 49°
2026-04-24 23:00 47.73322 9.91018 14815 ft 275 kts 49°
2026-04-24 23:00 47.74567 9.93218 14534 ft 281 kts 49°
2026-04-24 23:00 47.75836 9.95464 14242 ft 286 kts 49°
2026-04-24 23:00 47.77163 9.97676 13952 ft 285 kts 43°
2026-04-24 23:01 47.78630 9.99629 13694 ft 281 kts 39°
2026-04-24 23:01 47.80131 10.01489 13434 ft 281 kts 39°
2026-04-24 23:01 47.81640 10.03346 13172 ft 281 kts 39°
2026-04-24 23:01 47.83145 10.05209 12913 ft 281 kts 39°
2026-04-24 23:02 47.84646 10.07083 12648 ft 281 kts 39°
2026-04-24 23:02 47.86138 10.08957 12392 ft 279 kts 39°
2026-04-24 23:02 47.87615 10.10821 12141 ft 278 kts 39°
2026-04-24 23:02 47.89085 10.12682 11888 ft 276 kts 39°
2026-04-24 23:03 47.90527 10.14511 11645 ft 275 kts 39°
2026-04-24 23:03 47.91981 10.16358 11400 ft 274 kts 39°
2026-04-24 23:03 47.93429 10.18201 11159 ft 273 kts 39°
2026-04-24 23:03 47.94871 10.20036 10903 ft 270 kts 39°
2026-04-24 23:04 47.96291 10.21846 10657 ft 267 kts 39°
2026-04-24 23:04 47.97696 10.23638 10579 ft 263 kts 39°
2026-04-24 23:04 47.99081 10.25406 10576 ft 260 kts 39°
2026-04-24 23:04 48.00507 10.27005 10423 ft 254 kts 24°
2026-04-24 23:05 48.02197 10.27589 10067 ft 250 kts 359°
2026-04-24 23:05 48.03896 10.27076 9537 ft 252 kts 337°
2026-04-24 23:05 48.05328 10.25579 9128 ft 252 kts 314°
2026-04-24 23:05 48.06225 10.23342 8829 ft 254 kts 290°
2026-04-24 23:06 48.06418 10.20731 8573 ft 256 kts 264°
2026-04-24 23:06 48.05877 10.18207 8323 ft 257 kts 242°
2026-04-24 23:06 48.04681 10.16263 8032 ft 258 kts 208°
2026-04-24 23:06 48.03007 10.15490 7819 ft 255 kts 191°
2026-04-24 23:07 48.01271 10.14975 7555 ft 254 kts 192°
2026-04-24 23:07 47.99544 10.14430 7292 ft 254 kts 193°
2026-04-24 23:07 47.97825 10.13844 7031 ft 253 kts 193°
2026-04-24 23:07 47.96118 10.13227 6769 ft 252 kts 194°
2026-04-24 23:08 47.94430 10.12604 6735 ft 247 kts 194°
2026-04-24 23:08 47.92748 10.11982 6735 ft 252 kts 194°
2026-04-24 23:08 47.91024 10.11361 6750 ft 257 kts 192°
2026-04-24 23:08 47.89242 10.11143 6728 ft 258 kts 171°
2026-04-24 23:09 47.87667 10.12279 6714 ft 255 kts 132°
2026-04-24 23:09 47.86900 10.14641 6730 ft 264 kts 95°
2026-04-24 23:09 47.86987 10.17365 6762 ft 263 kts 90°
2026-04-24 23:09 47.86454 10.19874 6650 ft 252 kts 127°
2026-04-24 23:10 47.85100 10.21341 6526 ft 238 kts 165°
2026-04-24 23:10 47.83522 10.21267 6298 ft 227 kts 204°
2026-04-24 23:10 47.82343 10.19776 5885 ft 226 kts 239°
2026-04-24 23:10 47.81598 10.17751 5666 ft 217 kts 242°
2026-04-24 23:11 47.81225 10.15756 5615 ft 195 kts 279°
2026-04-24 23:11 47.81833 10.14095 5645 ft 185 kts 319°
2026-04-24 23:11 47.82900 10.12986 5657 ft 185 kts 336°
2026-04-24 23:11 47.84136 10.12454 5498 ft 186 kts 350°
2026-04-24 23:12 47.85384 10.12125 5298 ft 183 kts 351°
2026-04-24 23:12 47.86621 10.11809 5088 ft 178 kts 351°
2026-04-24 23:12 47.87809 10.11499 4884 ft 168 kts 351°
2026-04-24 23:12 47.88951 10.11198 4711 ft 165 kts 351°
2026-04-24 23:13 47.90050 10.10906 4552 ft 158 kts 351°
2026-04-24 23:13 47.91115 10.10621 4370 ft 153 kts 352°
2026-04-24 23:13 47.92143 10.10354 4224 ft 147 kts 355°
2026-04-24 23:13 47.93068 10.10744 3949 ft 136 kts 41°
2026-04-24 23:14 47.93741 10.11736 3753 ft 137 kts 46°
2026-04-24 23:14 47.94349 10.12850 3570 ft 137 kts 53°
2026-04-24 23:14 47.94907 10.13983 3398 ft 138 kts 55°
2026-04-24 23:14 47.95431 10.15231 3205 ft 145 kts 58°
2026-04-24 23:15 47.95933 10.16499 2999 ft 139 kts 58°
2026-04-24 23:15 47.96418 10.17730 2846 ft 137 kts 58°
2026-04-24 23:15 47.96914 10.18968 2652 ft 141 kts 59°
2026-04-24 23:15 47.97409 10.20213 2483 ft 137 kts 59°
2026-04-24 23:16 47.97895 10.21445 2305 ft 139 kts 60°
2026-04-24 23:16 47.98378 10.22681 2108 ft 135 kts 60°
2026-04-24 23:16 47.98805 10.23758 2078 ft 98 kts 59°
2026-04-24 23:16 47.99043 10.24358 2068 ft 46 kts 59°
2026-04-24 23:17 47.99193 10.24746 2068 ft 28 kts 58°
2026-04-24 23:17 47.99214 10.24890 2067 ft 9 kts 131°
2026-04-24 23:17 47.99162 10.24912 2064 ft 0 kts 189°
2026-04-24 23:18 47.99158 10.24909 2064 ft 3 kts 208°
2026-04-24 23:18 47.99126 10.24832 2065 ft 19 kts 239°
2026-04-24 23:18 47.99042 10.24615 2069 ft 28 kts 240°
2026-04-24 23:19 47.98932 10.24328 2072 ft 35 kts 240°
2026-04-24 23:19 47.98829 10.24068 2076 ft 6 kts 239°
2026-04-24 23:19 47.98791 10.23976 2077 ft 16 kts 238°
2026-04-24 23:19 47.98764 10.23913 2075 ft 0 kts 236°
2026-04-24 23:20 47.98763 10.23912 2075 ft 0 kts 236°
2026-04-24 23:20 47.98756 10.23869 2074 ft 11 kts 270°
2026-04-24 23:20 47.98764 10.23835 2073 ft 12 kts 305°
2026-04-24 23:21 47.98884 10.23723 2079 ft 18 kts 317°
2026-04-24 23:21 47.98895 10.23573 2074 ft 15 kts 253°
2026-04-24 23:21 47.98866 10.23437 2080 ft 5 kts 250°
2026-04-24 23:21 47.98851 10.23380 2079 ft 8 kts 247°
2026-04-24 23:22 47.98844 10.23326 2073 ft 3 kts 293°
2026-04-24 23:22 47.98876 10.23305 2077 ft 1 kts 357°
2026-04-24 23:22 47.98884 10.23313 2077 ft 2 kts 48°
2026-04-24 23:22 47.98889 10.23324 2073 ft 0 kts 53°
2026-04-24 23:23 47.98891 10.23328 2075 ft 0 kts 53°